Location: Karcze
(52.0945°N, 22.4786°E)
Time: 12:21:04
(UTC+00:00)

Cosmos 1271 Rocket - Pass Details

Date: 14 July 2020
Orbit: 497 x 546 km, 81.2° (Epoch: 07 August)

Event Time Altitude Azimuth Distance (km) Brightness Sun altitude
Rises 01:03:32 0° 353° (N) 2,639 7.1 -9.6°
Reaches altitude 10° 01:05:51 10° 3° (N) 1,739 6.4 -9.4°
Maximum altitude 01:09:21 34° 70° (ENE) 856 4.4 -9.0°
Drops below altitude 10° 01:12:47 10° 136° (SE) 1,708 5.2 -8.7°
Sets 01:15:01 0° 146° (SE) 2,583 6.1 -8.5°
